Simultaneous Nadir Overpasses (SNOs) Predictions

Prediction of SNOs between GOES-15 and NOAA-20 Satellite Orbit:

Table of predicted SNOs for the next 14.0 days since TLE Epoch: 5/21/2022
Index Date Time (GOES-15) GOES-15 Lat,Lon NOAA-20 Lat,Lon Distance(km) Time Diff (sec)
1 05/21/2022 09:43:33 0.09,-127.64 -0.67,-124.29 381.95 80
2 05/22/2022 22:02:49 -0.07,-127.70 -0.51,-129.60 216.65 80
3 05/23/2022 21:46:44 -0.08,-127.74 0.52,-125.07 304.54 80
4 05/25/2022 10:05:52 0.06,-127.81 0.65,-130.34 289.53 80
5 05/26/2022 09:49:47 0.07,-127.85 -0.39,-125.82 231.29 80
6 05/27/2022 22:09:03 -0.05,-127.90 -0.78,-131.13 368.24 80
7 05/28/2022 21:52:59 -0.05,-127.94 0.26,-126.60 152.52 80
8 05/30/2022 10:12:06 0.03,-128.00 0.90,-131.87 441.99 80
9 05/31/2022 09:56:02 0.04,-128.03 -0.14,-127.35 78.21 80
10 06/02/2022 21:56:33 -0.03,-128.10 -0.03,-128.12 2.78 80
